Location: DARK SKY Beskydy - Park tmavé oblohy, www.darkskybeskydy.cz
(49.4926°N, 18.5016°E)
Time: 19:19:16
(UTC+02:00)

PCSat - Pass Details

Date: 13 August 2024
Orbit: 781 x 793 km, 67.1° (Epoch: 08 September)

Event Time Altitude Azimuth Distance (km) Brightness Sun altitude
Rises 01:11:19 0° 325° (NW) 3,301 13.5 -25.8°
Reaches altitude 10° 01:13:46 10° 328° (NNW) 2,369 12.7 -25.7°
Maximum altitude 01:19:11 68° 51° (NE) 856 9.8 -25.6°
Enters shadow 01:20:35 48° 114° (ESE) 1,028 10.0 -25.6°
